Danville, IN

3:25 AM EDT on April 24, 2018 (GMT -0400)
Vermilion County

Weather History for KDNV - February, 2014

Change the Weather History Date:

Sunday, February 16, 2014

  Actual Average (KLAF) Record (KLAF)
Temperature  
Mean Temperature 13 °F -  
Max Temperature 24 °F 36 °F 61 °F (1976)
Min Temperature 2 °F 20 °F -6 °F (2007)
Degree Days  
Heating Degree Days 52    
Moisture  
Dew Point 14 °F    
Average Humidity 84    
Maximum Humidity 94    
Minimum Humidity 75    
Precipitation  
Precipitation 0.00 in - - ()
Sea Level Pressure  
Sea Level Pressure 30.11 in    
Wind  
Wind Speed 8 mph (NW)    
Max Wind Speed 17 mph    
Max Gust Speed 21 mph    
Visibility 7 miles    
Events Fog , Snow    
Averages and records for this station are not official NWS values.
T = Trace of Precipitation, MM = Missing Value Source: NWS Daily Summary

Daily Weather History Graph

Daily Weather History Graph

Search for Another Location

Airport or City:

Astronomy

Feb. 16, 2014 Rise Set
Actual Time 6:42 AM CST 5:27 PM CST
Civil Twilight 6:14 AM CST 5:55 PM CST
Nautical Twilight 5:42 AM CST 6:26 PM CST
Astronomical Twilight 5:11 AM CST 6:58 PM CST
Moon 7:24 PM CST (2/16) 7:11 AM CST (2/16)
Length of Visible Light 11h 40m
Length of Day
10h 45m
Full, 97% of the Moon is Illuminated
Feb 16
Full
Feb 22
Last Quarter
Mar 1
New
Mar 8
First Quarter
Mar 16
Full

Hourly Weather History & Observations

Time (CST) Temp. Windchill Dew Point Humidity Pressure Visibility Wind Dir Wind Speed Gust Speed Precip Events Conditions
12:15 AM 21.2 °F 12.6 °F 18.3 °F 89% 29.94 in 7.0 mi SSW 6.9 mph - N/A Snow Light Snow
12:35 AM 21.6 °F 11.3 °F 18.5 °F 88% 29.93 in 10.0 mi SSW 9.2 mph - N/A   Overcast
12:55 AM 21.7 °F 12.3 °F 18.7 °F 88% 29.93 in 10.0 mi SSW 8.1 mph - N/A   Overcast
1:15 AM 22.1 °F 12.0 °F 18.9 °F 87% 29.93 in 10.0 mi SSW 9.2 mph - N/A   Overcast
1:35 AM 22.1 °F 12.8 °F 19.2 °F 89% 29.93 in 10.0 mi SSW 8.1 mph - N/A   Overcast
1:55 AM 22.5 °F 14.1 °F 19.4 °F 88% 29.93 in 10.0 mi SW 6.9 mph - N/A   Overcast
2:15 AM 22.8 °F 14.5 °F 19.4 °F 87% 29.92 in 10.0 mi SW 6.9 mph - N/A   Overcast
2:35 AM 23.0 °F 13.9 °F 19.4 °F 86% 29.92 in 10.0 mi SW 8.1 mph - N/A   Overcast
2:55 AM 23.0 °F 14.7 °F 19.4 °F 86% 29.92 in 10.0 mi SW 6.9 mph - N/A   Overcast
3:15 AM 23.2 °F 14.1 °F 19.4 °F 85% 29.92 in 10.0 mi WSW 8.1 mph - N/A   Overcast
3:35 AM 23.4 °F 15.2 °F 19.6 °F 85% 29.92 in 10.0 mi WSW 6.9 mph - N/A   Overcast
3:55 AM 23.7 °F 14.7 °F 19.8 °F 85% 29.93 in 10.0 mi WSW 8.1 mph - N/A   Overcast
4:15 AM 23.7 °F 15.6 °F 19.9 °F 85% 29.93 in 10.0 mi West 6.9 mph - N/A   Overcast
4:35 AM 23.7 °F 15.6 °F 19.9 °F 85% 29.94 in 10.0 mi WSW 6.9 mph - N/A   Overcast
4:55 AM 23.7 °F 17.8 °F 19.9 °F 85% 29.94 in 10.0 mi West 4.6 mph - N/A   Overcast
5:15 AM 24.4 °F 16.5 °F 19.9 °F 83% 29.94 in 10.0 mi WNW 6.9 mph - N/A   Overcast
5:35 AM 24.4 °F 13.0 °F 19.4 °F 81% 29.95 in 10.0 mi WNW 12.7 mph 16.1 mph N/A   Overcast
5:55 AM 23.9 °F 13.5 °F 19.0 °F 82% 29.97 in 10.0 mi NW 10.4 mph - N/A   Overcast
6:15 AM 23.7 °F 10.1 °F 19.0 °F 82% 29.97 in 10.0 mi NW 17.3 mph - N/A   Overcast
6:35 AM 21.6 °F 9.3 °F 16.7 °F 82% 29.99 in 10.0 mi NW 12.7 mph - N/A   Overcast
6:55 AM 21.0 °F 8.1 °F 16.0 °F 81% 30.00 in 7.0 mi NW 13.8 mph - N/A   Overcast
7:15 AM 20.1 °F 8.1 °F 15.6 °F 83% 30.01 in 7.0 mi NW 11.5 mph - N/A   Overcast
7:35 AM 20.1 °F 9.5 °F 16.0 °F 84% 30.03 in 7.0 mi NW 9.2 mph - N/A   Overcast
7:55 AM 20.3 °F 9.0 °F 16.2 °F 84% 30.04 in 7.0 mi NW 10.4 mph 17.3 mph N/A   Overcast
8:15 AM 20.3 °F 8.3 °F 16.2 °F 84% 30.05 in 7.0 mi NNW 11.5 mph - N/A   Overcast
8:35 AM 20.3 °F 8.3 °F 15.8 °F 83% 30.07 in 7.0 mi NW 11.5 mph - N/A   Overcast
8:55 AM 20.3 °F 8.3 °F 15.6 °F 82% 30.08 in 7.0 mi NNW 11.5 mph - N/A   Overcast
9:15 AM 20.1 °F 7.5 °F 15.4 °F 82% 30.09 in 7.0 mi NNW 12.7 mph 19.6 mph N/A   Overcast
9:35 AM 20.3 °F 8.3 °F 15.4 °F 81% 30.10 in 7.0 mi NW 11.5 mph - N/A   Overcast
9:55 AM 20.5 °F 6.9 °F 15.4 °F 81% 30.11 in 7.0 mi NW 15.0 mph - N/A   Overcast
10:15 AM 20.3 °F 7.7 °F 15.6 °F 82% 30.11 in 7.0 mi NNW 12.7 mph - N/A   Overcast
10:35 AM 20.3 °F 6.6 °F 15.4 °F 81% 30.13 in 7.0 mi NNW 15.0 mph 20.7 mph N/A   Overcast
10:55 AM 20.7 °F 7.1 °F 15.3 °F 80% 30.13 in 7.0 mi NW 15.0 mph - N/A   Overcast
11:15 AM 20.8 °F 7.3 °F 15.4 °F 80% 30.14 in 7.0 mi NW 15.0 mph - N/A   Overcast
11:35 AM 21.0 °F 8.6 °F 15.4 °F 79% 30.15 in 7.0 mi NW 12.7 mph - N/A   Overcast
11:55 AM 20.7 °F 10.2 °F 15.3 °F 80% 30.15 in 7.0 mi NNW 9.2 mph - N/A   Overcast
12:15 PM 21.4 °F 11.9 °F 15.4 °F 78% 30.14 in 7.0 mi NNW 8.1 mph - N/A   Mostly Cloudy
12:35 PM 21.4 °F 11.1 °F 15.1 °F 77% 30.15 in 7.0 mi NNW 9.2 mph - N/A   Scattered Clouds
12:55 PM 21.7 °F 10.8 °F 15.6 °F 77% 30.15 in 7.0 mi NW 10.4 mph - N/A   Mostly Cloudy
1:15 PM 21.9 °F 12.5 °F 15.6 °F 77% 30.15 in 7.0 mi NW 8.1 mph - N/A   Overcast
1:35 PM 21.9 °F 13.4 °F 15.6 °F 77% 30.15 in 7.0 mi NW 6.9 mph - N/A   Mostly Cloudy
1:55 PM 22.1 °F 12.0 °F 15.4 °F 76% 30.16 in 7.0 mi WNW 9.2 mph - N/A   Mostly Cloudy
2:15 PM 21.6 °F 11.3 °F 15.6 °F 78% 30.16 in 7.0 mi WNW 9.2 mph - N/A   Scattered Clouds
2:35 PM 21.2 °F 11.7 °F 14.9 °F 77% 30.17 in 7.0 mi WNW 8.1 mph - N/A   Clear
2:55 PM 21.2 °F 12.6 °F 14.5 °F 75% 30.18 in 7.0 mi WNW 6.9 mph - N/A   Clear
3:15 PM 21.2 °F 12.6 °F 14.7 °F 76% 30.19 in 7.0 mi WNW 6.9 mph - N/A   Clear
3:35 PM 21.6 °F 12.1 °F 14.9 °F 76% 30.19 in 7.0 mi NW 8.1 mph - N/A   Clear
3:55 PM 20.8 °F 12.1 °F 14.5 °F 77% 30.20 in 7.0 mi NW 6.9 mph - N/A   Clear
4:15 PM 20.5 °F 12.8 °F 14.0 °F 76% 30.20 in 7.0 mi NW 5.8 mph - N/A   Clear
4:35 PM 17.6 °F 6.4 °F 12.2 °F 79% 30.20 in 7.0 mi North 9.2 mph - N/A   Clear
4:55 PM 16.5 °F 6.9 °F 11.5 °F 81% 30.21 in 7.0 mi North 6.9 mph - N/A   Clear
5:15 PM 13.5 °F 3.3 °F 9.3 °F 84% 30.22 in 7.0 mi NNE 6.9 mph - N/A   Clear
5:35 PM 13.1 °F 5.4 °F 9.7 °F 86% 30.23 in 7.0 mi North 4.6 mph - N/A   Clear
5:55 PM 13.8 °F 4.9 °F 10.8 °F 88% 30.24 in 7.0 mi NNE 5.8 mph - N/A   Clear
6:15 PM 13.1 °F 7.1 °F 10.8 °F 90% 30.25 in 7.0 mi North 3.5 mph - N/A   Clear
6:35 PM 8.1 °F - 5.7 °F 90% 30.25 in 5.0 mi Calm Calm - N/A   Clear
6:55 PM 8.4 °F 1.8 °F 6.6 °F 92% 30.24 in 5.0 mi East 3.5 mph - N/A   Clear
7:15 PM 8.2 °F - 6.8 °F 94% 30.24 in 4.0 mi Calm Calm - N/A   Clear
7:35 PM 9.3 °F 2.8 °F 7.7 °F 93% 30.24 in 4.0 mi East 3.5 mph - N/A   Clear
7:55 PM 8.8 °F 2.2 °F 7.2 °F 93% 30.25 in 2.5 mi ENE 3.5 mph - N/A   Clear
8:15 PM 7.9 °F - 5.7 °F 91% 30.26 in 2.5 mi Calm Calm - N/A   Clear
8:35 PM 4.5 °F - 1.8 °F 89% 30.25 in 0.5 mi Calm Calm - N/A Fog Light Freezing Fog
8:55 PM 5.7 °F - 2.8 °F 88% 30.25 in 4.0 mi Calm Calm - N/A   Clear
9:15 PM 2.8 °F -4.6 °F -0.6 °F 86% 30.24 in 3.0 mi ENE 3.5 mph - N/A   Clear
9:35 PM 6.8 °F -0.1 °F 4.1 °F 89% 30.23 in 5.0 mi East 3.5 mph - N/A   Clear
9:55 PM 7.7 °F - 5.0 °F 89% 30.23 in 5.0 mi Calm Calm - N/A   Clear
10:15 PM 9.5 °F - 7.2 °F 90% 30.23 in 5.0 mi Calm Calm - N/A   Clear
10:35 PM 12.2 °F - 9.9 °F 90% 30.24 in 5.0 mi Calm Calm - N/A   Clear
10:55 PM 12.6 °F - 10.2 °F 90% 30.24 in 5.0 mi Calm Calm - N/A   Scattered Clouds
11:15 PM 10.9 °F 4.7 °F 8.4 °F 90% 30.24 in 5.0 mi East 3.5 mph - N/A   Clear
11:35 PM 12.2 °F 4.3 °F 9.9 °F 90% 30.23 in 5.0 mi East 4.6 mph - N/A   Scattered Clouds
11:55 PM 13.8 °F 4.9 °F 11.8 °F 92% 30.23 in 5.0 mi East 5.8 mph - N/A   Mostly Cloudy